Wetterdaten: Samstag, 19.08.2006
Datum Zeit Temp. A Sch. Temp. A Son. Feuchte A. Luftdruck Regen Wind Richtung Richtung Sonnenschein Helligkeit Taupunkt Windchill
19.08.2006 00:00 13,6 C 14,3 C 88 % 1013 hPa 0,0 l/m 0,0 m/s (0 Bft) SO 125 0 min 0 lux 11,6 C 13,6 C
19.08.2006 00:05 13,4 C 14,3 C 89 % 1013 hPa 0,0 l/m 0,0 m/s (0 Bft) SO 125 0 min 0 lux 11,6 C 13,4 C
19.08.2006 00:10 13,2 C 14,2 C 89 % 1013 hPa 0,0 l/m 0,0 m/s (0 Bft) SO 130 0 min 0 lux 11,4 C 13,2 C
19.08.2006 00:15 13,3 C 14,1 C 89 % 1013 hPa 0,0 l/m 0,0 m/s (0 Bft) SO 130 0 min 0 lux 11,5 C 13,3 C
19.08.2006 00:20 13,2 C 14,1 C 89 % 1013 hPa 0,0 l/m 0,0 m/s (0 Bft) SO 130 0 min 0 lux 11,4 C 13,2 C
19.08.2006 00:25 12,9 C 13,9 C 90 % 1013 hPa 0,0 l/m 0,0 m/s (0 Bft) SO 130 0 min 0 lux 11,3 C 12,9 C
19.08.2006 00:30 12,8 C 13,8 C 90 % 1013 hPa 0,0 l/m 0,0 m/s (0 Bft) SO 130 0 min 0 lux 11,2 C 12,8 C
19.08.2006 00:35 12,7 C 13,7 C 90 % 1013 hPa 0,0 l/m 0,0 m/s (0 Bft) SO 130 0 min 0 lux 11,1 C 12,7 C
19.08.2006 00:40 12,8 C 13,6 C 90 % 1013 hPa 0,0 l/m 0,0 m/s (0 Bft) SO 130 0 min 0 lux 11,2 C 12,8 C
19.08.2006 00:45 13,0 C 13,6 C 90 % 1013 hPa 0,0 l/m 0,0 m/s (0 Bft) SO 130 0 min 0 lux 11,4 C 13,0 C
19.08.2006 00:50 13,1 C 13,6 C 91 % 1014 hPa 0,0 l/m 0,0 m/s (0 Bft) SO 130 0 min 0 lux 11,7 C 13,1 C
19.08.2006 00:55 13,0 C 13,6 C 91 % 1014 hPa 0,0 l/m 0,0 m/s (0 Bft) SO 130 0 min 0 lux 11,6 C 13,0 C
19.08.2006 01:00 13,0 C 13,6 C 91 % 1014 hPa 0,0 l/m 0,0 m/s (0 Bft) SO 130 0 min 0 lux 11,6 C 13,0 C
19.08.2006 01:05 12,9 C 13,5 C 91 % 1014 hPa 0,0 l/m 0,0 m/s (0 Bft) SO 130 0 min 0 lux 11,5 C 12,9 C
19.08.2006 01:10 12,9 C 13,4 C 91 % 1014 hPa 0,0 l/m 0,0 m/s (0 Bft) SO 130 0 min 0 lux 11,5 C 12,9 C
19.08.2006 01:15 13,0 C 13,4 C 91 % 1014 hPa 0,0 l/m 0,0 m/s (0 Bft) SO 130 0 min 0 lux 11,6 C 13,0 C
19.08.2006 01:20 13,0 C 13,3 C 91 % 1013 hPa 0,0 l/m 0,0 m/s (0 Bft) SO 130 0 min 0 lux 11,6 C 13,0 C
19.08.2006 01:25 12,9 C 13,3 C 92 % 1014 hPa 0,0 l/m 0,0 m/s (0 Bft) SO 130 0 min 0 lux 11,6 C 12,9 C
19.08.2006 01:30 13,0 C 13,2 C 91 % 1014 hPa 0,0 l/m 0,0 m/s (0 Bft) SO 130 0 min 0 lux 11,6 C 13,0 C
19.08.2006 01:35 12,7 C 13,2 C 92 % 1014 hPa 0,0 l/m 0,0 m/s (0 Bft) SO 130 0 min 0 lux 11,4 C 12,7 C
19.08.2006 01:40 12,6 C 13,1 C 92 % 1014 hPa 0,0 l/m 0,0 m/s (0 Bft) SO 130 0 min 0 lux 11,3 C 12,6 C
19.08.2006 01:45 12,7 C 13,1 C 92 % 1014 hPa 0,0 l/m 0,0 m/s (0 Bft) SO 130 0 min 0 lux 11,4 C 12,7 C
19.08.2006 01:50 12,4 C 13,0 C 92 % 1014 hPa 0,0 l/m 0,0 m/s (0 Bft) SO 130 0 min 0 lux 11,1 C 12,4 C
19.08.2006 01:55 12,4 C 13,0 C 92 % 1014 hPa 0,0 l/m 0,0 m/s (0 Bft) SO 130 0 min 0 lux 11,1 C 12,4 C
19.08.2006 02:00 12,4 C 13,0 C 92 % 1014 hPa 0,0 l/m 0,0 m/s (0 Bft) SO 130 0 min 0 lux 11,1 C 12,4 C
19.08.2006 02:05 12,7 C 12,9 C 92 % 1013 hPa 0,0 l/m 0,0 m/s (0 Bft) SO 130 0 min 0 lux 11,4 C 12,7 C
19.08.2006 02:10 12,6 C 12,9 C 92 % 1013 hPa 0,0 l/m 0,0 m/s (0 Bft) SO 130 0 min 0 lux 11,3 C 12,6 C
19.08.2006 02:15 12,5 C 12,9 C 92 % 1013 hPa 0,0 l/m 0,0 m/s (0 Bft) SO 130 0 min 0 lux 11,2 C 12,5 C
19.08.2006 02:20 12,5 C 12,8 C 92 % 1013 hPa 0,0 l/m 0,0 m/s (0 Bft) SO 130 0 min 0 lux 11,2 C 12,5 C
19.08.2006 02:25 12,4 C 12,8 C 93 % 1013 hPa 0,0 l/m 0,0 m/s (0 Bft) SO 130 0 min 0 lux 11,3 C 12,4 C
19.08.2006 02:30 12,4 C 12,8 C 93 % 1013 hPa 0,0 l/m 0,0 m/s (0 Bft) SO 130 0 min 0 lux 11,3 C 12,4 C
19.08.2006 02:35 12,5 C 12,8 C 93 % 1013 hPa 0,0 l/m 0,0 m/s (0 Bft) SO 130 0 min 0 lux 11,4 C 12,5 C
19.08.2006 02:40 12,5 C 12,8 C 93 % 1014 hPa 0,0 l/m 0,0 m/s (0 Bft) SO 130 0 min 0 lux 11,4 C 12,5 C
19.08.2006 02:45 12,4 C 12,8 C 93 % 1013 hPa 0,0 l/m 0,0 m/s (0 Bft) SO 130 0 min 0 lux 11,3 C 12,4 C
19.08.2006 02:50 12,4 C 12,8 C 93 % 1013 hPa 0,0 l/m 0,0 m/s (0 Bft) SO 130 0 min 0 lux 11,3 C 12,4 C
19.08.2006 02:55 12,3 C 12,8 C 93 % 1013 hPa 0,0 l/m 0,0 m/s (0 Bft) SO 130 0 min 0 lux 11,2 C 12,3 C
19.08.2006 03:00 12,3 C 12,8 C 93 % 1013 hPa 0,0 l/m 0,0 m/s (0 Bft) SO 130 0 min 0 lux 11,2 C 12,3 C
19.08.2006 03:05 12,3 C 12,8 C 93 % 1014 hPa 0,0 l/m 0,0 m/s (0 Bft) SO 130 0 min 0 lux 11,2 C 12,3 C
19.08.2006 03:10 12,1 C 12,7 C 93 % 1014 hPa 0,0 l/m 0,0 m/s (0 Bft) SO 130 0 min 0 lux 11,0 C 12,1 C
19.08.2006 03:15 12,0 C 12,7 C 93 % 1014 hPa 0,0 l/m 0,0 m/s (0 Bft) SO 130 0 min 0 lux 10,9 C 12,0 C
19.08.2006 03:20 12,0 C 12,6 C 93 % 1014 hPa 0,0 l/m 0,0 m/s (0 Bft) SO 130 0 min 0 lux 10,9 C 12,0 C
19.08.2006 03:25 11,8 C 12,5 C 93 % 1014 hPa 0,0 l/m 0,0 m/s (0 Bft) SO 130 0 min 0 lux 10,7 C 11,8 C
19.08.2006 03:30 12,0 C 12,4 C 93 % 1014 hPa 0,0 l/m 0,0 m/s (0 Bft) SO 130 0 min 0 lux 10,9 C 12,0 C
19.08.2006 03:35 12,0 C 12,4 C 93 % 1014 hPa 0,0 l/m 0,0 m/s (0 Bft) SO 130 0 min 0 lux 10,9 C 12,0 C
19.08.2006 03:40 11,8 C 12,3 C 93 % 1014 hPa 0,0 l/m 0,0 m/s (0 Bft) SO 125 0 min 0 lux 10,7 C 11,8 C
19.08.2006 03:45 11,7 C 12,3 C 93 % 1014 hPa 0,0 l/m 0,0 m/s (0 Bft) SO 125 0 min 0 lux 10,6 C 11,7 C
19.08.2006 03:50 11,8 C 12,2 C 93 % 1014 hPa 0,0 l/m 0,0 m/s (0 Bft) SO 125 0 min 0 lux 10,7 C 11,8 C
19.08.2006 03:55 11,8 C 12,2 C 94 % 1014 hPa 0,0 l/m 0,0 m/s (0 Bft) SO 125 0 min 0 lux 10,9 C 11,8 C
19.08.2006 04:00 11,8 C 12,2 C 94 % 1014 hPa 0,0 l/m 0,0 m/s (0 Bft) SO 125 0 min 0 lux 10,9 C 11,8 C
19.08.2006 04:05 11,6 C 12,1 C 94 % 1014 hPa 0,0 l/m 0,0 m/s (0 Bft) SO 125 0 min 0 lux 10,7 C 11,6 C
19.08.2006 04:10 11,5 C 12,0 C 94 % 1014 hPa 0,0 l/m 0,0 m/s (0 Bft) SO 125 0 min 0 lux 10,6 C 11,5 C
19.08.2006 04:15 11,4 C 11,9 C 94 % 1014 hPa 0,0 l/m 0,0 m/s (0 Bft) SO 125 0 min 0 lux 10,5 C 11,4 C
19.08.2006 04:20 11,3 C 11,9 C 93 % 1014 hPa 0,0 l/m 0,0 m/s (0 Bft) SO 125 0 min 0 lux 10,2 C 11,3 C
19.08.2006 04:25 11,3 C 11,9 C 93 % 1014 hPa 0,0 l/m 0,0 m/s (0 Bft) SO 125 0 min 0 lux 10,2 C 11,3 C
19.08.2006 04:30 11,4 C 11,8 C 94 % 1014 hPa 0,0 l/m 0,0 m/s (0 Bft) SO 125 0 min 0 lux 10,5 C 11,4 C
19.08.2006 04:35 11,1 C 11,7 C 93 % 1014 hPa 0,0 l/m 0,0 m/s (0 Bft) SO 130 0 min 0 lux 10,0 C 11,1 C
19.08.2006 04:40 11,2 C 11,6 C 94 % 1014 hPa 0,0 l/m 0,0 m/s (0 Bft) SO 130 0 min 0 lux 10,3 C 11,2 C
19.08.2006 04:45 11,3 C 11,5 C 94 % 1014 hPa 0,0 l/m 0,0 m/s (0 Bft) SO 130 0 min 0 lux 10,4 C 11,3 C
19.08.2006 04:50 11,0 C 11,5 C 94 % 1014 hPa 0,0 l/m 0,0 m/s (0 Bft) SO 130 0 min 0 lux 10,1 C 11,0 C
19.08.2006 04:55 11,0 C 11,5 C 94 % 1014 hPa 0,0 l/m 0,0 m/s (0 Bft) SO 130 0 min 0 lux 10,1 C 11,0 C
19.08.2006 05:00 11,0 C 11,4 C 94 % 1014 hPa 0,0 l/m 0,0 m/s (0 Bft) SO 130 0 min 0 lux 10,1 C 11,0 C
19.08.2006 05:05 11,0 C 11,4 C 94 % 1014 hPa 0,0 l/m 0,0 m/s (0 Bft) SO 130 0 min 0 lux 10,1 C 11,0 C
19.08.2006 05:10 11,1 C 11,3 C 94 % 1014 hPa 0,0 l/m 0,0 m/s (0 Bft) SO 130 0 min 0 lux 10,2 C 11,1 C
19.08.2006 05:15 11,0 C 11,3 C 94 % 1014 hPa 0,0 l/m 0,0 m/s (0 Bft) SO 130 0 min 0 lux 10,1 C 11,0 C
19.08.2006 05:20 11,0 C 11,3 C 94 % 1014 hPa 0,0 l/m 0,0 m/s (0 Bft) SO 130 0 min 0 lux 10,1 C 11,0 C
19.08.2006 05:25 10,8 C 11,3 C 95 % 1014 hPa 0,0 l/m 0,0 m/s (0 Bft) SO 130 0 min 0 lux 10,0 C 10,8 C
19.08.2006 05:30 11,0 C 11,2 C 94 % 1014 hPa 0,0 l/m 0,0 m/s (0 Bft) SO 130 0 min 0 lux 10,1 C 11,0 C
19.08.2006 05:35 10,9 C 11,1 C 95 % 1014 hPa 0,0 l/m 0,0 m/s (0 Bft) SO 130 0 min 0 lux 10,1 C 10,9 C
19.08.2006 05:40 10,8 C 11,1 C 95 % 1014 hPa 0,0 l/m 0,0 m/s (0 Bft) SO 130 0 min 0 lux 10,0 C 10,8 C
19.08.2006 05:45 10,9 C 11,1 C 95 % 1014 hPa 0,0 l/m 0,0 m/s (0 Bft) SO 130 0 min 0 lux 10,1 C 10,9 C
19.08.2006 05:50 11,0 C 11,1 C 95 % 1014 hPa 0,0 l/m 0,0 m/s (0 Bft) SO 130 0 min 0 lux 10,2 C 11,0 C
19.08.2006 05:55 10,8 C 11,0 C 95 % 1014 hPa 0,0 l/m 0,0 m/s (0 Bft) SO 130 0 min 0 lux 10,0 C 10,8 C
19.08.2006 06:00 10,8 C 11,0 C 95 % 1014 hPa 0,0 l/m 0,0 m/s (0 Bft) SO 130 0 min 0 lux 10,0 C 10,8 C
19.08.2006 06:05 10,6 C 11,0 C 95 % 1014 hPa 0,0 l/m 0,0 m/s (0 Bft) SO 130 0 min 64 lux 9,8 C 10,6 C
19.08.2006 06:10 10,5 C 10,9 C 95 % 1014 hPa 0,0 l/m 0,0 m/s (0 Bft) SO 130 0 min 121 lux 9,7 C 10,5 C
19.08.2006 06:15 11,1 C 10,9 C 95 % 1014 hPa 0,0 l/m 0,0 m/s (0 Bft) SO 130 0 min 217 lux 10,3 C 11,1 C
19.08.2006 06:20 11,0 C 10,8 C 95 % 1014 hPa 0,0 l/m 1,3 m/s (1 Bft) O-NO 70 0 min 369 lux 10,2 C 11,0 C
19.08.2006 06:25 10,8 C 10,8 C 95 % 1014 hPa 0,0 l/m 1,5 m/s (1 Bft) O22.5 90 0 min 595 lux 10,0 C 10,8 C
19.08.2006 06:30 10,8 C 10,8 C 95 % 1014 hPa 0,0 l/m 0,1 m/s (0 Bft) O22.5 100 0 min 907 lux 10,0 C 10,8 C
19.08.2006 06:35 10,8 C 10,8 C 95 % 1014 hPa 0,0 l/m 0,0 m/s (0 Bft) SO 135 0 min 1,28 klux 10,0 C 10,8 C
19.08.2006 06:40 10,5 C 10,8 C 95 % 1014 hPa 0,0 l/m 0,0 m/s (0 Bft) SO 135 0 min 1,72 klux 9,7 C 10,5 C
19.08.2006 06:45 10,5 C 10,8 C 95 % 1014 hPa 0,0 l/m 0,0 m/s (0 Bft) SO 135 0 min 2,36 klux 9,7 C 10,5 C
19.08.2006 06:50 10,5 C 10,8 C 95 % 1014 hPa 0,0 l/m 0,0 m/s (0 Bft) SO 135 0 min 3,50 klux 9,7 C 10,5 C
19.08.2006 06:55 10,7 C 10,8 C 95 % 1014 hPa 0,0 l/m 0,0 m/s (0 Bft) SO 140 0 min 3,92 klux 9,9 C 10,7 C
19.08.2006 07:00 10,9 C 10,8 C 95 % 1014 hPa 0,0 l/m 0,0 m/s (0 Bft) SO 140 0 min 6,00 klux 10,1 C 10,9 C
19.08.2006 07:05 11,4 C 10,8 C 95 % 1014 hPa 0,0 l/m 0,0 m/s (0 Bft) SO 140 0 min 7,34 klux 10,6 C 11,4 C
19.08.2006 07:10 11,8 C 10,8 C 95 % 1014 hPa 0,0 l/m 0,0 m/s (0 Bft) SO 140 5 min 10,8 klux 11,0 C 11,8 C
19.08.2006 07:15 12,8 C 10,9 C 95 % 1014 hPa 0,0 l/m 0,0 m/s (0 Bft) SO 140 5 min 12,9 klux 12,0 C 12,8 C
19.08.2006 07:20 12,9 C 10,9 C 93 % 1014 hPa 0,0 l/m 0,0 m/s (0 Bft) SO 140 5 min 13,5 klux 11,8 C 12,9 C
19.08.2006 07:25 12,9 C 10,9 C 92 % 1014 hPa 0,0 l/m 0,0 m/s (0 Bft) SO 140 5 min 16,3 klux 11,6 C 12,9 C
19.08.2006 07:30 14,4 C 10,9 C 84 % 1014 hPa 0,0 l/m 0,0 m/s (0 Bft) SO 140 5 min 17,9 klux 11,7 C 14,4 C
19.08.2006 07:35 13,4 C 10,9 C 74 % 1014 hPa 0,0 l/m 0,0 m/s (0 Bft) SO 140 5 min 19,1 klux 8,9 C 13,4 C
19.08.2006 07:40 14,3 C 11,0 C 74 % 1014 hPa 0,0 l/m 0,0 m/s (0 Bft) S-SO 150 5 min 20,8 klux 9,7 C 14,3 C
19.08.2006 07:45 15,2 C 11,0 C 67 % 1014 hPa 0,0 l/m 0,0 m/s (0 Bft) S-SO 150 5 min 21,6 klux 9,1 C 15,2 C
19.08.2006 07:50 14,8 C 11,1 C 63 % 1014 hPa 0,0 l/m 0,0 m/s (0 Bft) S-SO 150 5 min 23,2 klux 7,8 C 14,8 C
19.08.2006 07:55 16,0 C 11,1 C 61 % 1014 hPa 0,0 l/m 0,0 m/s (0 Bft) S-SO 150 5 min 25,2 klux 8,5 C 16,0 C
19.08.2006 08:00 16,0 C 11,2 C 58 % 1014 hPa 0,0 l/m 0,0 m/s (0 Bft) S-SO 150 5 min 26,5 klux 7,7 C 16,0 C
19.08.2006 08:05 16,7 C 11,3 C 56 % 1015 hPa 0,0 l/m 0,0 m/s (0 Bft) S-SO 150 5 min 27,8 klux 7,9 C 16,7 C
19.08.2006 08:10 16,0 C 11,4 C 58 % 1014 hPa 0,0 l/m 0,0 m/s (0 Bft) S-SO 150 5 min 29,4 klux 7,7 C 16,0 C
19.08.2006 08:15 15,7 C 11,5 C 59 % 1014 hPa 0,0 l/m 0,0 m/s (0 Bft) S-SO 150 5 min 30,7 klux 7,7 C 15,7 C
19.08.2006 08:20 14,9 C 11,6 C 64 % 1015 hPa 0,0 l/m 0,0 m/s (0 Bft) S-SO 150 5 min 32,2 klux 8,2 C 14,9 C
19.08.2006 08:25 14,9 C 11,7 C 67 % 1015 hPa 0,0 l/m 0,0 m/s (0 Bft) S-SO 150 5 min 33,1 klux 8,8 C 14,9 C
19.08.2006 08:30 14,5 C 11,9 C 73 % 1015 hPa 0,0 l/m 0,0 m/s (0 Bft) S-SO 150 5 min 37,4 klux 9,7 C 14,5 C
19.08.2006 08:35 14,4 C 12,0 C 76 % 1015 hPa 0,0 l/m 0,0 m/s (0 Bft) S-SO 150 5 min 38,2 klux 10,2 C 14,4 C
19.08.2006 08:40 14,8 C 12,2 C 77 % 1015 hPa 0,0 l/m 0,0 m/s (0 Bft) S-SO 150 5 min 38,3 klux 10,8 C 14,8 C
19.08.2006 08:45 15,0 C 12,4 C 77 % 1015 hPa 0,0 l/m 0,0 m/s (0 Bft) S-SO 150 5 min 39,4 klux 11,0 C 15,0 C
19.08.2006 08:50 15,1 C 12,6 C 76 % 1015 hPa 0,0 l/m 0,0 m/s (0 Bft) S-SO 150 5 min 41,8 klux 10,9 C 15,1 C
19.08.2006 08:55 15,5 C 12,8 C 76 % 1015 hPa 0,0 l/m 0,0 m/s (0 Bft) SO 145 5 min 43,7 klux 11,3 C 15,5 C
19.08.2006 09:00 15,8 C 13,2 C 76 % 1015 hPa 0,0 l/m 0,0 m/s (0 Bft) SO 145 5 min 44,0 klux 11,6 C 15,8 C
19.08.2006 09:05 16,3 C 13,3 C 74 % 1015 hPa 0,0 l/m 0,0 m/s (0 Bft) SO 140 5 min 44,8 klux 11,7 C 16,3 C
19.08.2006 09:10 16,9 C 13,5 C 74 % 1015 hPa 0,0 l/m 0,0 m/s (0 Bft) SO 145 5 min 45,5 klux 12,2 C 16,9 C
19.08.2006 09:15 17,0 C 14,0 C 73 % 1015 hPa 0,0 l/m 0,0 m/s (0 Bft) SO 145 5 min 50,5 klux 12,1 C 17,0 C
19.08.2006 09:20 17,2 C 14,4 C 72 % 1015 hPa 0,0 l/m 0,0 m/s (0 Bft) SO 145 5 min 53,3 klux 12,1 C 17,2 C
19.08.2006 09:25 17,6 C 14,9 C 70 % 1015 hPa 0,0 l/m 0,0 m/s (0 Bft) SO 130 0 min 21,9 klux 12,1 C 17,6 C
19.08.2006 09:30 17,5 C 15,2 C 71 % 1015 hPa 0,0 l/m 0,0 m/s (0 Bft) SO 130 5 min 48,6 klux 12,2 C 17,5 C
19.08.2006 09:35 18,1 C 15,3 C 71 % 1014 hPa 0,0 l/m 1,7 m/s (2 Bft) SO 125 5 min 50,5 klux 12,8 C 18,1 C
19.08.2006 09:40 18,5 C 15,5 C 69 % 1014 hPa 0,0 l/m 1,8 m/s (2 Bft) O45 95 5 min 51,5 klux 12,7 C 18,4 C
19.08.2006 09:45 18,7 C 15,9 C 68 % 1014 hPa 0,0 l/m 1,4 m/s (1 Bft) SO22.5 125 5 min 52,8 klux 12,7 C 18,7 C
19.08.2006 09:50 18,8 C 16,2 C 65 % 1014 hPa 0,0 l/m 2,7 m/s (2 Bft) O-SO22.5 105 5 min 54,4 klux 12,1 C 17,4 C
19.08.2006 09:55 19,2 C 16,3 C 63 % 1014 hPa 0,0 l/m 2,0 m/s (2 Bft) O-SO22.5 115 5 min 54,8 klux 12,0 C 18,8 C
19.08.2006 10:00 19,7 C 16,6 C 62 % 1014 hPa 0,0 l/m 2,2 m/s (2 Bft) O22.5 100 5 min 55,9 klux 12,2 C 19,1 C
19.08.2006 10:05 19,8 C 16,9 C 62 % 1014 hPa 0,0 l/m 2,1 m/s (2 Bft) O-SO22.5 110 5 min 56,5 klux 12,3 C 19,3 C
19.08.2006 10:10 20,0 C 17,0 C 63 % 1014 hPa 0,0 l/m 1,8 m/s (2 Bft) O22.5 90 5 min 58,6 klux 12,7 C 20,0 C
19.08.2006 10:15 20,3 C 17,3 C 60 % 1014 hPa 0,0 l/m 2,4 m/s (2 Bft) O-SO22.5 105 5 min 59,2 klux 12,3 C 19,4 C
19.08.2006 10:20 20,5 C 17,7 C 59 % 1014 hPa 0,0 l/m 2,7 m/s (2 Bft) O-SO45 105 5 min 59,7 klux 12,2 C 19,3 C
19.08.2006 10:25 20,5 C 18,0 C 58 % 1014 hPa 0,0 l/m 2,7 m/s (2 Bft) O-SO22.5 105 5 min 63,2 klux 11,9 C 19,3 C
19.08.2006 10:30 20,6 C 18,9 C 58 % 1014 hPa 0,0 l/m 2,6 m/s (2 Bft) O22.5 90 5 min 65,9 klux 12,0 C 19,6 C
19.08.2006 10:35 21,0 C 20,5 C 58 % 1014 hPa 0,0 l/m 2,2 m/s (2 Bft) O-SO 110 5 min 66,4 klux 12,4 C 20,4 C
19.08.2006 10:40 21,0 C 21,6 C 56 % 1014 hPa 0,0 l/m 2,7 m/s (2 Bft) O22.5 100 0 min 33,6 klux 11,9 C 19,9 C
19.08.2006 10:45 21,1 C 21,8 C 56 % 1014 hPa 0,0 l/m 2,1 m/s (2 Bft) O22.5 100 5 min 74,7 klux 12,0 C 20,7 C
19.08.2006 10:50 21,9 C 23,1 C 57 % 1014 hPa 0,0 l/m 1,6 m/s (2 Bft) O-SO45 115 5 min 73,1 klux 13,0 C 21,9 C
19.08.2006 10:55 22,1 C 23,8 C 53 % 1014 hPa 0,0 l/m 2,1 m/s (2 Bft) O45 80 5 min 70,4 klux 12,1 C 21,7 C
19.08.2006 11:00 21,7 C 25,0 C 51 % 1014 hPa 0,0 l/m 2,7 m/s (2 Bft) O45 100 5 min 69,6 klux 11,1 C 20,6 C
19.08.2006 11:05 22,5 C 26,3 C 53 % 1014 hPa 0,0 l/m 1,7 m/s (2 Bft) O-SO45 115 5 min 71,9 klux 12,4 C 22,5 C
19.08.2006 11:10 22,7 C 27,3 C 52 % 1014 hPa 0,0 l/m 1,6 m/s (2 Bft) O45 95 5 min 69,9 klux 12,3 C 22,7 C
19.08.2006 11:15 22,9 C 27,7 C 50 % 1014 hPa 0,0 l/m 1,6 m/s (2 Bft) O45 95 5 min 69,6 klux 11,9 C 22,9 C
19.08.2006 11:20 23,0 C 28,3 C 48 % 1014 hPa 0,0 l/m 2,8 m/s (2 Bft) O-SO45 105 5 min 70,3 klux 11,4 C 21,9 C
19.08.2006 11:25 23,1 C 28,6 C 46 % 1014 hPa 0,0 l/m 2,1 m/s (2 Bft) SO22.5 135 5 min 71,8 klux 10,8 C 22,8 C
19.08.2006 11:30 23,0 C 29,0 C 47 % 1014 hPa 0,0 l/m 2,3 m/s (2 Bft) SO22.5 135 5 min 64,9 klux 11,1 C 22,5 C
19.08.2006 11:35 23,4 C 29,3 C 42 % 1014 hPa 0,0 l/m 2,7 m/s (2 Bft) O-SO22.5 120 5 min 72,8 klux 9,7 C 22,5 C
19.08.2006 11:40 23,5 C 29,8 C 42 % 1014 hPa 0,0 l/m 3,0 m/s (2 Bft) O-SO22.5 120 5 min 70,6 klux 9,8 C 22,3 C
19.08.2006 11:45 23,4 C 30,0 C 42 % 1014 hPa 0,0 l/m 2,6 m/s (2 Bft) O-SO22.5 115 5 min 72,5 klux 9,7 C 22,6 C
19.08.2006 11:50 23,8 C 30,0 C 42 % 1014 hPa 0,0 l/m 3,7 m/s (3 Bft) SO45 125 5 min 76,2 klux 10,1 C 22,2 C
19.08.2006 11:55 23,7 C 30,0 C 42 % 1014 hPa 0,0 l/m 2,7 m/s (2 Bft) S-SO45 155 5 min 78,1 klux 10,0 C 22,8 C
19.08.2006 12:00 23,9 C 30,2 C 41 % 1014 hPa 0,0 l/m 2,8 m/s (2 Bft) SO45 140 5 min 81,0 klux 9,8 C 22,9 C
19.08.2006 12:05 24,3 C 30,4 C 40 % 1014 hPa 0,0 l/m 2,2 m/s (2 Bft) SO22.5 135 5 min 78,9 klux 9,8 C 23,9 C
19.08.2006 12:10 24,3 C 30,4 C 37 % 1014 hPa 0,0 l/m 3,5 m/s (3 Bft) SO45 130 5 min 79,7 klux 8,7 C 22,9 C
19.08.2006 12:15 24,2 C 30,6 C 33 % 1014 hPa 0,0 l/m 4,1 m/s (3 Bft) SO22.5 130 5 min 67,8 klux 6,9 C 22,4 C
19.08.2006 12:20 24,4 C 30,8 C 35 % 1014 hPa 0,0 l/m 3,4 m/s (2 Bft) SO45 135 5 min 87,7 klux 7,9 C 23,1 C
19.08.2006 12:25 24,6 C 31,1 C 35 % 1014 hPa 0,0 l/m 4,0 m/s (3 Bft) O-SO45 115 5 min 83,6 klux 8,1 C 22,9 C
19.08.2006 12:30 24,5 C 31,2 C 34 % 1014 hPa 0,0 l/m 4,1 m/s (3 Bft) SO45 145 5 min 94,4 klux 7,6 C 22,8 C
19.08.2006 12:35 24,9 C 31,0 C 32 % 1014 hPa 0,0 l/m 2,4 m/s (2 Bft) SO22.5 140 5 min 68,2 klux 7,1 C 24,3 C
19.08.2006 12:40 25,4 C 30,5 C 35 % 1014 hPa 0,0 l/m 4,0 m/s (3 Bft) SO45 140 5 min 105 klux 8,8 C 23,9 C
19.08.2006 12:45 25,6 C 31,1 C 33 % 1014 hPa 0,0 l/m 4,6 m/s (3 Bft) SO22.5 125 5 min 101 klux 8,1 C 23,8 C
19.08.2006 12:50 25,9 C 31,5 C 32 % 1014 hPa 0,0 l/m 3,8 m/s (3 Bft) SO45 135 5 min 91,3 klux 7,9 C 24,6 C
19.08.2006 12:55 25,7 C 31,8 C 32 % 1014 hPa 0,0 l/m 2,8 m/s (2 Bft) S-SO22.5 160 5 min 94,8 klux 7,8 C 24,9 C
19.08.2006 13:00 25,7 C 32,1 C 31 % 1014 hPa 0,0 l/m 3,3 m/s (2 Bft) SO45 140 5 min 97,8 klux 7,3 C 24,6 C
19.08.2006 13:05 26,2 C 32,4 C 32 % 1014 hPa 0,0 l/m 5,2 m/s (3 Bft) S-SO45 150 5 min 90,8 klux 8,2 C 24,4 C
19.08.2006 13:10 25,8 C 32,9 C 35 % 1014 hPa 0,0 l/m 4,3 m/s (3 Bft) SO22.5 135 5 min 86,7 klux 9,2 C 24,2 C
19.08.2006 13:15 25,3 C 33,0 C 35 % 1014 hPa 0,0 l/m 3,0 m/s (2 Bft) SO22.5 145 5 min 89,2 klux 8,7 C 24,3 C
19.08.2006 13:20 24,9 C 33,3 C 36 % 1014 hPa 0,0 l/m 4,9 m/s (3 Bft) O-SO22.5 110 5 min 85,2 klux 8,8 C 22,8 C
19.08.2006 13:25 24,7 C 33,3 C 37 % 1014 hPa 0,0 l/m 6,0 m/s (4 Bft) O-SO22.5 115 5 min 89,5 klux 9,0 C 22,1 C
19.08.2006 13:30 24,7 C 33,3 C 39 % 1014 hPa 0,0 l/m 3,4 m/s (2 Bft) SO45 130 5 min 80,9 klux 9,8 C 23,4 C
19.08.2006 13:35 24,8 C 33,2 C 40 % 1014 hPa 0,0 l/m 3,4 m/s (2 Bft) O-SO45 120 5 min 93,5 klux 10,3 C 23,5 C
19.08.2006 13:40 25,0 C 32,8 C 37 % 1014 hPa 0,0 l/m 3,7 m/s (3 Bft) SO45 135 5 min 90,2 klux 9,3 C 23,6 C
19.08.2006 13:45 25,8 C 32,9 C 39 % 1014 hPa 0,0 l/m 3,4 m/s (2 Bft) SO45 140 5 min 90,0 klux 10,8 C 24,7 C
19.08.2006 13:50 24,8 C 33,0 C 37 % 1014 hPa 0,0 l/m 4,7 m/s (3 Bft) S-SO67.5 155 5 min 90,0 klux 9,1 C 22,8 C
19.08.2006 13:55 24,8 C 32,2 C 37 % 1014 hPa 0,0 l/m 3,5 m/s (3 Bft) O67.5 100 0 min 33,0 klux 9,1 C 23,5 C
19.08.2006 14:00 25,1 C 32,6 C 38 % 1014 hPa 0,0 l/m 4,8 m/s (3 Bft) O-SO22.5 110 5 min 92,4 klux 9,8 C 23,1 C
19.08.2006 14:05 24,8 C 32,8 C 37 % 1014 hPa 0,0 l/m 5,7 m/s (4 Bft) O-SO45 115 5 min 77,0 klux 9,1 C 22,3 C
19.08.2006 14:10 25,0 C 32,6 C 36 % 1014 hPa 0,0 l/m 5,4 m/s (3 Bft) SO67.5 125 5 min 86,0 klux 8,9 C 22,7 C
19.08.2006 14:15 25,8 C 32,9 C 37 % 1014 hPa 0,0 l/m 3,3 m/s (2 Bft) S-SO67.5 155 5 min 84,7 klux 10,0 C 24,7 C
19.08.2006 14:20 25,8 C 33,8 C 38 % 1014 hPa 0,0 l/m 2,3 m/s (2 Bft) O-SO45 120 5 min 81,0 klux 10,4 C 25,4 C
19.08.2006 14:25 25,3 C 33,8 C 37 % 1014 hPa 0,0 l/m 3,1 m/s (2 Bft) O-SO22.5 110 5 min 81,1 klux 9,6 C 24,3 C
19.08.2006 14:30 25,3 C 34,5 C 38 % 1014 hPa 0,0 l/m 4,6 m/s (3 Bft) O-SO67.5 115 5 min 83,1 klux 9,9 C 23,4 C
19.08.2006 14:35 25,1 C 35,0 C 36 % 1014 hPa 0,0 l/m 4,2 m/s (3 Bft) SO67.5 135 5 min 82,3 klux 9,0 C 23,4 C
19.08.2006 14:40 25,4 C 34,9 C 37 % 1014 hPa 0,0 l/m 3,4 m/s (3 Bft) SO45 140 5 min 86,6 klux 9,6 C 24,2 C
19.08.2006 14:45 25,7 C 35,2 C 39 % 1014 hPa 0,0 l/m 3,3 m/s (2 Bft) O-SO45 110 5 min 85,9 klux 10,7 C 24,6 C
19.08.2006 14:50 25,7 C 35,8 C 38 % 1014 hPa 0,0 l/m 4,4 m/s (3 Bft) SO45 125 5 min 84,7 klux 10,3 C 24,0 C
19.08.2006 14:55 25,1 C 36,1 C 36 % 1014 hPa 0,0 l/m 4,4 m/s (3 Bft) O-SO22.5 115 5 min 83,0 klux 9,0 C 23,3 C
19.08.2006 15:00 25,9 C 35,6 C 36 % 1014 hPa 0,0 l/m 1,2 m/s (1 Bft) S67.5 185 5 min 76,4 klux 9,7 C 25,9 C
19.08.2006 15:05 25,5 C 34,6 C 34 % 1014 hPa 0,0 l/m 1,3 m/s (1 Bft) SW67.5 235 5 min 89,5 klux 8,5 C 25,5 C
19.08.2006 15:10 25,3 C 33,5 C 36 % 1014 hPa 0,0 l/m 1,2 m/s (1 Bft) SO67.5 140 0 min 26,9 klux 9,1 C 25,3 C
19.08.2006 15:15 25,7 C 33,3 C 37 % 1013 hPa 0,0 l/m 0,2 m/s (0 Bft) S-SO67.5 150 5 min 82,7 klux 9,9 C 25,7 C
19.08.2006 15:20 26,2 C 34,6 C 31 % 1013 hPa 0,0 l/m 2,2 m/s (2 Bft) S-SW67.5 200 5 min 78,4 klux 7,7 C 25,9 C
19.08.2006 15:25 26,8 C 35,0 C 30 % 1013 hPa 0,0 l/m 4,3 m/s (3 Bft) S67.5 175 5 min 75,4 klux 7,8 C 25,4 C
19.08.2006 15:30 26,9 C 35,0 C 29 % 1013 hPa 0,0 l/m 2,3 m/s (2 Bft) S-SW67.5 205 5 min 73,5 klux 7,3 C 26,6 C
19.08.2006 15:35 26,6 C 35,5 C 30 % 1013 hPa 0,0 l/m 3,6 m/s (3 Bft) S67.5 190 5 min 72,1 klux 7,6 C 25,5 C
19.08.2006 15:40 26,6 C 36,0 C 30 % 1013 hPa 0,0 l/m 3,2 m/s (2 Bft) S67.5 170 5 min 69,0 klux 7,6 C 25,7 C
19.08.2006 15:45 26,4 C 35,2 C 29 % 1013 hPa 0,0 l/m 3,0 m/s (2 Bft) S-SW67.5 205 5 min 55,6 klux 6,9 C 25,6 C
19.08.2006 15:50 26,5 C 34,9 C 30 % 1013 hPa 0,0 l/m 2,9 m/s (2 Bft) W-SW67.5 245 0 min 48,4 klux 7,5 C 25,7 C
19.08.2006 15:55 26,0 C 33,9 C 30 % 1013 hPa 0,0 l/m 4,7 m/s (3 Bft) S67.5 180 0 min 36,4 klux 7,1 C 24,3 C
19.08.2006 16:00 25,8 C 32,8 C 31 % 1013 hPa 0,0 l/m 3,6 m/s (3 Bft) S67.5 190 5 min 57,0 klux 7,4 C 24,6 C
19.08.2006 16:05 25,8 C 32,6 C 32 % 1013 hPa 0,0 l/m 4,6 m/s (3 Bft) SO67.5 140 5 min 56,8 klux 7,8 C 24,1 C
19.08.2006 16:10 26,1 C 32,4 C 33 % 1013 hPa 0,0 l/m 2,3 m/s (2 Bft) S67.5 175 5 min 60,9 klux 8,6 C 25,7 C
19.08.2006 16:15 26,4 C 33,7 C 31 % 1013 hPa 0,0 l/m 2,8 m/s (2 Bft) SW45 235 5 min 67,7 klux 7,9 C 25,7 C
19.08.2006 16:20 26,3 C 34,1 C 32 % 1013 hPa 0,0 l/m 4,2 m/s (3 Bft) W-SW22.5 240 5 min 62,2 klux 8,3 C 24,9 C
19.08.2006 16:25 25,8 C 34,5 C 30 % 1013 hPa 0,0 l/m 5,1 m/s (3 Bft) W-SW45 255 5 min 62,2 klux 6,9 C 23,9 C
19.08.2006 16:30 26,1 C 34,7 C 31 % 1013 hPa 0,0 l/m 4,7 m/s (3 Bft) W67.5 260 5 min 62,9 klux 7,6 C 24,4 C
19.08.2006 16:35 26,2 C 34,5 C 30 % 1013 hPa 0,0 l/m 4,6 m/s (3 Bft) SW67.5 230 5 min 58,6 klux 7,2 C 24,6 C
19.08.2006 16:40 26,2 C 34,5 C 30 % 1013 hPa 0,0 l/m 4,8 m/s (3 Bft) SW67.5 220 5 min 63,2 klux 7,2 C 24,5 C
19.08.2006 16:45 26,5 C 34,6 C 30 % 1013 hPa 0,0 l/m 3,4 m/s (2 Bft) S-SO45 165 5 min 64,5 klux 7,5 C 25,5 C
19.08.2006 16:50 25,8 C 33,6 C 31 % 1013 hPa 0,0 l/m 4,4 m/s (3 Bft) S-SW67.5 210 5 min 58,5 klux 7,4 C 24,1 C
19.08.2006 16:55 26,1 C 33,7 C 30 % 1013 hPa 0,0 l/m 3,8 m/s (3 Bft) W-SW45 240 5 min 60,1 klux 7,2 C 24,8 C
19.08.2006 17:00 26,1 C 34,1 C 28 % 1013 hPa 0,0 l/m 3,9 m/s (3 Bft) W-SW45 255 5 min 58,3 klux 6,2 C 24,8 C
19.08.2006 17:05 26,4 C 34,6 C 28 % 1013 hPa 0,0 l/m 3,9 m/s (3 Bft) SW45 235 5 min 57,2 klux 6,4 C 25,1 C
19.08.2006 17:10 26,3 C 34,2 C 28 % 1013 hPa 0,0 l/m 3,0 m/s (2 Bft) S-SO67.5 155 5 min 50,7 klux 6,3 C 25,5 C
19.08.2006 17:15 25,9 C 33,9 C 31 % 1013 hPa 0,0 l/m 2,3 m/s (2 Bft) S-SW67.5 195 0 min 23,3 klux 7,5 C 25,5 C
19.08.2006 17:20 25,1 C 32,3 C 31 % 1013 hPa 0,0 l/m 3,1 m/s (2 Bft) SW67.5 220 0 min 13,8 klux 6,8 C 24,1 C
19.08.2006 17:25 25,1 C 31,0 C 33 % 1013 hPa 0,0 l/m 0,2 m/s (0 Bft) S-SW45 205 0 min 13,2 klux 7,7 C 25,1 C
19.08.2006 17:30 24,8 C 30,4 C 35 % 1013 hPa 0,0 l/m 1,6 m/s (2 Bft) S-SW45 200 0 min 12,4 klux 8,3 C 24,8 C
19.08.2006 17:35 24,8 C 29,5 C 34 % 1013 hPa 0,0 l/m 1,6 m/s (1 Bft) S67.5 185 0 min 11,5 klux 7,9 C 24,8 C
19.08.2006 17:40 24,5 C 28,7 C 35 % 1013 hPa 0,0 l/m 2,0 m/s (2 Bft) S45 180 0 min 9,2 klux 8,0 C 24,3 C
19.08.2006 17:45 24,4 C 28,3 C 35 % 1013 hPa 0,0 l/m 1,6 m/s (2 Bft) S45 175 0 min 7,16 klux 7,9 C 24,4 C
19.08.2006 17:50 24,2 C 27,7 C 37 % 1013 hPa 0,0 l/m 1,8 m/s (2 Bft) S45 185 0 min 9,0 klux 8,6 C 24,2 C
19.08.2006 17:55 24,1 C 27,1 C 37 % 1013 hPa 0,0 l/m 0,1 m/s (0 Bft) S-SO 150 0 min 8,53 klux 8,5 C 24,1 C
19.08.2006 18:00 23,9 C 26,6 C 38 % 1013 hPa 0,0 l/m 0,4 m/s (1 Bft) S-SO22.5 150 0 min 6,07 klux 8,7 C 23,9 C
19.08.2006 18:05 23,7 C 26,4 C 40 % 1013 hPa 0,0 l/m 1,3 m/s (1 Bft) S-SO22.5 155 0 min 5,62 klux 9,3 C 23,7 C
19.08.2006 18:10 23,5 C 25,9 C 44 % 1013 hPa 0,0 l/m 1,0 m/s (1 Bft) SO22.5 140 0 min 5,19 klux 10,5 C 23,5 C
19.08.2006 18:15 23,4 C 25,5 C 45 % 1013 hPa 0,0 l/m 0,8 m/s (1 Bft) S-SO 150 0 min 4,34 klux 10,8 C 23,4 C
19.08.2006 18:20 23,1 C 25,3 C 43 % 1013 hPa 0,0 l/m 2,4 m/s (2 Bft) S-SO22.5 150 0 min 3,05 klux 9,8 C 22,5 C
19.08.2006 18:25 23,0 C 25,1 C 43 % 1013 hPa 0,0 l/m 1,2 m/s (1 Bft) S-SO22.5 150 0 min 2,07 klux 9,7 C 23,0 C
19.08.2006 18:30 22,9 C 24,7 C 45 % 1013 hPa 0,0 l/m 1,5 m/s (1 Bft) S-SO22.5 155 0 min 1,47 klux 10,3 C 22,9 C
19.08.2006 18:35 22,7 C 24,6 C 48 % 1013 hPa 0,0 l/m 1,4 m/s (1 Bft) S-SO22.5 155 0 min 1,03 klux 11,1 C 22,7 C
19.08.2006 18:45 22,5 C 24,3 C 47 % 1013 hPa 0,0 l/m 0,1 m/s (0 Bft) S-SO22.5 160 0 min 768 lux 10,6 C 22,5 C
19.08.2006 18:50 22,5 C 24,1 C 48 % 1013 hPa 0,0 l/m 1,8 m/s (2 Bft) S-SW67.5 200 0 min 401 lux 10,9 C 22,5 C
19.08.2006 18:55 21,2 C 23,7 C 48 % 1014 hPa 0,0 l/m 11,0 m/s (6 Bft) W45 260 0 min 277 lux 9,7 C 15,5 C
19.08.2006 19:00 19,3 C 23,2 C 57 % 1014 hPa 0,0 l/m 9,7 m/s (5 Bft) W-SW45 255 0 min 193 lux 10,6 C 13,2 C
19.08.2006 19:05 18,0 C 22,0 C 65 % 1014 hPa 0,0 l/m 11,0 m/s (6 Bft) W22.5 270 0 min 445 lux 11,3 C 10,8 C
19.08.2006 19:10 17,3 C 21,1 C 68 % 1014 hPa 0,0 l/m 9,9 m/s (5 Bft) W-NW67.5 285 0 min 625 lux 11,3 C 10,2 C
19.08.2006 19:15 16,6 C 20,6 C 72 % 1014 hPa 0,0 l/m 7,3 m/s (4 Bft) W45 260 0 min 592 lux 11,5 C 10,5 C
19.08.2006 19:20 16,3 C 19,8 C 75 % 1015 hPa 0,4 l/m 5,8 m/s (4 Bft) W-SW22.5 255 0 min 871 lux 11,9 C 11,2 C
19.08.2006 19:25 16,2 C 19,2 C 76 % 1015 hPa 0,0 l/m 6,7 m/s (4 Bft) W22.5 265 0 min 903 lux 12,0 C 10,4 C
19.08.2006 19:30 16,2 C 18,8 C 78 % 1015 hPa 0,4 l/m 3,9 m/s (3 Bft) W-NW45 295 0 min 1,66 klux 12,4 C 12,9 C
19.08.2006 19:35 16,3 C 18,6 C 81 % 1015 hPa 0,0 l/m 1,1 m/s (1 Bft) W-NW22.5 300 0 min 1,75 klux 13,0 C 16,3 C
19.08.2006 19:40 16,3 C 18,3 C 82 % 1015 hPa 0,0 l/m 2,7 m/s (2 Bft) W45 275 0 min 1,51 klux 13,2 C 14,7 C
19.08.2006 19:45 16,4 C 18,1 C 82 % 1015 hPa 0,4 l/m 0,0 m/s (0 Bft) W-NW 300 0 min 1,81 klux 13,3 C 16,4 C
19.08.2006 19:50 16,4 C 18,1 C 83 % 1014 hPa 0,0 l/m 0,0 m/s (0 Bft) W-NW 300 0 min 2,06 klux 13,5 C 16,4 C
19.08.2006 19:55 16,1 C 18,0 C 82 % 1014 hPa 0,0 l/m 1,5 m/s (1 Bft) N67.5 5 0 min 1,39 klux 13,0 C 16,1 C
19.08.2006 20:00 15,8 C 17,8 C 83 % 1014 hPa 0,0 l/m 1,8 m/s (2 Bft) O22.5 95 0 min 1,18 klux 12,9 C 15,8 C
19.08.2006 20:05 15,8 C 17,6 C 84 % 1014 hPa 0,0 l/m 2,0 m/s (2 Bft) O-SO45 105 0 min 1,19 klux 13,1 C 15,4 C
19.08.2006 20:10 15,8 C 17,5 C 84 % 1014 hPa 0,0 l/m 3,3 m/s (2 Bft) O-SO45 105 0 min 1,27 klux 13,1 C 13,3 C
19.08.2006 20:15 15,9 C 17,4 C 84 % 1014 hPa 0,0 l/m 1,3 m/s (1 Bft) O-NO22.5 70 0 min 1,57 klux 13,2 C 15,9 C
19.08.2006 20:20 15,9 C 17,2 C 84 % 1014 hPa 0,0 l/m 0,1 m/s (0 Bft) O-NO 70 0 min 1,26 klux 13,2 C 15,9 C
19.08.2006 20:25 16,0 C 17,2 C 83 % 1014 hPa 0,0 l/m 0,2 m/s (0 Bft) O-NO 70 0 min 690 lux 13,1 C 16,0 C
19.08.2006 20:30 16,1 C 17,2 C 84 % 1014 hPa 0,0 l/m 0,0 m/s (0 Bft) O-NO 70 0 min 297 lux 13,4 C 16,1 C
19.08.2006 20:35 15,9 C 17,2 C 84 % 1014 hPa 0,0 l/m 0,0 m/s (0 Bft) O-NO 70 0 min 174 lux 13,2 C 15,9 C
19.08.2006 20:40 16,0 C 17,1 C 84 % 1014 hPa 0,0 l/m 0,0 m/s (0 Bft) O-NO 70 0 min 107 lux 13,3 C 16,0 C
19.08.2006 20:45 15,8 C 17,1 C 86 % 1014 hPa 0,0 l/m 0,0 m/s (0 Bft) O-NO 70 0 min 81 lux 13,5 C 15,8 C
19.08.2006 20:50 16,0 C 17,1 C 85 % 1014 hPa 0,0 l/m 0,0 m/s (0 Bft) O-NO 70 0 min 45 lux 13,5 C 16,0 C
19.08.2006 20:55 15,8 C 17,0 C 86 % 1014 hPa 0,0 l/m 1,8 m/s (2 Bft) W-SW 250 0 min 23 lux 13,5 C 15,8 C
19.08.2006 21:00 15,7 C 17,0 C 86 % 1015 hPa 0,0 l/m 1,8 m/s (2 Bft) W-SW 255 0 min 17 lux 13,4 C 15,7 C
19.08.2006 21:05 15,7 C 16,9 C 87 % 1015 hPa 0,0 l/m 0,9 m/s (1 Bft) W22.5 260 0 min 13 lux 13,5 C 15,7 C
19.08.2006 21:10 15,6 C 16,9 C 87 % 1015 hPa 0,0 l/m 2,2 m/s (2 Bft) W-SW 250 0 min 11 lux 13,4 C 14,8 C
19.08.2006 21:15 15,5 C 16,8 C 87 % 1015 hPa 0,0 l/m 2,5 m/s (2 Bft) W-SW22.5 250 0 min 9 lux 13,3 C 14,2 C
19.08.2006 21:20 15,6 C 16,7 C 88 % 1015 hPa 0,0 l/m 3,1 m/s (2 Bft) W-SW22.5 255 0 min 5 lux 13,6 C 13,3 C
19.08.2006 21:25 15,4 C 16,6 C 89 % 1015 hPa 0,0 l/m 3,7 m/s (3 Bft) W-SW22.5 250 0 min 4 lux 13,6 C 12,3 C
19.08.2006 21:30 15,4 C 16,6 C 89 % 1015 hPa 0,0 l/m 3,9 m/s (3 Bft) W-SW22.5 250 0 min 4 lux 13,6 C 12,0 C
19.08.2006 21:35 15,4 C 16,5 C 90 % 1015 hPa 0,0 l/m 2,5 m/s (2 Bft) W-SW45 255 0 min 2 lux 13,8 C 14,0 C
19.08.2006 21:40 15,4 C 16,4 C 90 % 1015 hPa 0,0 l/m 2,2 m/s (2 Bft) W-SW45 240 0 min 1 lux 13,8 C 14,6 C
19.08.2006 21:45 15,4 C 16,3 C 90 % 1015 hPa 0,0 l/m 0,0 m/s (0 Bft) SW 215 0 min 1 lux 13,8 C 15,4 C
19.08.2006 21:50 15,6 C 16,3 C 91 % 1015 hPa 0,0 l/m 0,0 m/s (0 Bft) SW 215 0 min 1 lux 14,1 C 15,6 C
19.08.2006 21:55 15,5 C 16,2 C 91 % 1015 hPa 0,0 l/m 0,0 m/s (0 Bft) SW 215 0 min 1 lux 14,0 C 15,5 C
19.08.2006 22:00 15,5 C 16,2 C 91 % 1015 hPa 0,0 l/m 0,0 m/s (0 Bft) SW 215 0 min 0 lux 14,0 C 15,5 C
19.08.2006 22:05 15,4 C 16,1 C 91 % 1015 hPa 0,0 l/m 0,0 m/s (0 Bft) SW 215 0 min 0 lux 13,9 C 15,4 C
19.08.2006 22:10 15,3 C 16,1 C 90 % 1015 hPa 0,0 l/m 0,0 m/s (0 Bft) SW 215 0 min 0 lux 13,7 C 15,3 C
19.08.2006 22:15 15,4 C 16,1 C 90 % 1015 hPa 0,0 l/m 0,0 m/s (0 Bft) SW 215 0 min 0 lux 13,8 C 15,4 C
19.08.2006 22:20 15,3 C 16,0 C 90 % 1015 hPa 0,0 l/m 0,0 m/s (0 Bft) SW 215 0 min 0 lux 13,7 C 15,3 C
19.08.2006 22:25 15,1 C 15,9 C 90 % 1015 hPa 0,0 l/m 0,0 m/s (0 Bft) SW 215 0 min 0 lux 13,5 C 15,1 C
19.08.2006 22:30 15,0 C 15,8 C 91 % 1015 hPa 0,0 l/m 0,0 m/s (0 Bft) SW 215 0 min 0 lux 13,5 C 15,0 C
19.08.2006 22:35 14,8 C 15,7 C 91 % 1015 hPa 0,0 l/m 0,0 m/s (0 Bft) SW 215 0 min 0 lux 13,3 C 14,8 C
19.08.2006 22:40 14,6 C 15,6 C 91 % 1015 hPa 0,0 l/m 0,0 m/s (0 Bft) SW 215 0 min 0 lux 13,1 C 14,6 C
19.08.2006 22:45 14,5 C 15,5 C 91 % 1015 hPa 0,0 l/m 0,0 m/s (0 Bft) SW 215 0 min 0 lux 13,0 C 14,5 C
19.08.2006 22:50 14,2 C 15,3 C 91 % 1015 hPa 0,0 l/m 0,0 m/s (0 Bft) SW 215 0 min 0 lux 12,8 C 14,2 C
19.08.2006 22:55 14,4 C 15,2 C 91 % 1015 hPa 0,0 l/m 0,0 m/s (0 Bft) SW 215 0 min 0 lux 12,9 C 14,4 C
19.08.2006 23:00 14,4 C 15,1 C 92 % 1015 hPa 0,0 l/m 0,0 m/s (0 Bft) SW 215 0 min 0 lux 13,1 C 14,4 C
19.08.2006 23:05 14,0 C 15,0 C 92 % 1015 hPa 0,0 l/m 0,0 m/s (0 Bft) SW 215 0 min 0 lux 12,7 C 14,0 C
19.08.2006 23:10 14,2 C 14,9 C 92 % 1015 hPa 0,0 l/m 0,0 m/s (0 Bft) SW 215 0 min 0 lux 12,9 C 14,2 C
19.08.2006 23:15 14,0 C 14,8 C 92 % 1015 hPa 0,0 l/m 0,0 m/s (0 Bft) SW 215 0 min 0 lux 12,7 C 14,0 C
19.08.2006 23:20 13,8 C 14,7 C 92 % 1015 hPa 0,0 l/m 0,0 m/s (0 Bft) SW 215 0 min 0 lux 12,5 C 13,8 C
19.08.2006 23:25 13,8 C 14,6 C 92 % 1015 hPa 0,0 l/m 0,0 m/s (0 Bft) SW 215 0 min 0 lux 12,5 C 13,8 C
19.08.2006 23:30 13,5 C 14,6 C 92 % 1016 hPa 0,0 l/m 0,0 m/s (0 Bft) SW 215 0 min 0 lux 12,2 C 13,5 C
19.08.2006 23:35 13,5 C 14,4 C 93 % 1016 hPa 0,0 l/m 0,0 m/s (0 Bft) SW 215 0 min 0 lux 12,4 C 13,5 C
19.08.2006 23:40 13,7 C 14,3 C 93 % 1016 hPa 0,0 l/m 1,0 m/s (1 Bft) SW 215 0 min 0 lux 12,6 C 13,7 C
19.08.2006 23:45 13,6 C 14,3 C 93 % 1016 hPa 0,0 l/m 0,1 m/s (0 Bft) SW 215 0 min 0 lux 12,5 C 13,6 C
19.08.2006 23:50 13,7 C 14,2 C 93 % 1016 hPa 0,0 l/m 0,0 m/s (0 Bft) SW 215 0 min 0 lux 12,6 C 13,7 C
19.08.2006 23:55 13,3 C 14,1 C 93 % 1016 hPa 0,0 l/m 0,0 m/s (0 Bft) SW 215 0 min 0 lux 12,2 C 13,3 C
_ Min-Zeit 06:10 06:20 17:00 00:00 - 00:00 - - - - 17:00 19:10
Minimum _ 10,5 C 10,8 C 28 % 1013 hPa - 0,0 m/s (0 Bft) - - - - 6,2 C 10,2 C
_ Max-Zeit 15:30 14:55 05:25 23:30 19:20 18:55 - - 07:10 12:40 21:50 15:30
Maximum _ 26,9 C 36,1 C 95 % 1016 hPa 0,4 l/m 11,0 m/s
W (6 Bft)
- - 5 min 105 klux 14,1 C 26,6 C
Durchschnitt _ 17,7 C 19,9 C 69 % 1014 hPa #1,1 l/m 1,5 m/s (1 Bft) SO - #9:35 h 26,8 klux 10,7 C 17,2 C